Regional Weather Roundup
Issued by NWS Midland/Odessa, TX

Skip options and go directly to product.
Home | Oldest Version | Next Version | Current Version | All | Text Only | Save Text | Print | Product List | Glossary On

Skip product version selection by date and time.   
165
ASUS44 KMAF 040910
RWRMAF
MIDLAND AREA WEATHER ROUNDUP
NATIONAL WEATHER SERVICE MIDLAND TX
400 AM CDT FRI SEP 04 2015

...IN SOUTHWEST TEXAS AND SOUTHEAST NEW MEXICO...

CITY           SKY/WX    TMP DP  RH WIND       PRES   REMARKS
ALPINE         PTCLDY    68  52  56 CALM      30.08F
ANDREWS        FAIR      70  54  55 S5        29.97R
ARTESIA        MOCLDY    77  50  38 S7        29.95S
BIG SPRING     CLEAR     75  55  50 SE10      29.95S
CARLSBAD       MOCLDY    76  48  37 SE5       29.93F
DRYDEN           N/A     79  62  56 SE6       29.90S
FORT STOCKTON  CLEAR     72  53  51 S10       29.93F
GUAD PASS      PTCLDY    74  45  35 CALM      30.10S
HOBBS            N/A     66  52  59 CALM      29.99S
MARFA          PTCLDY    57  48  72 NW3       30.06F
MIDLAND AIRPK  CLEAR     74  55  51 S6        29.95S
MIDLAND INTL   CLEAR     72  55  55 S5        29.94S
ODESSA         CLEAR     73  52  47 S7        29.95S
PECOS          CLEAR     70  50  48 SE5       29.90F
PRESIDIO       FAIR      81  55  40 MISG      29.90S
SEMINOLE       CLEAR     68  51  54 SW3       29.98S
SNYDER         CLEAR     75  61  61 SE12      29.94S
WINK           CLEAR     70  54  56 E6        29.92S
$$
...OTHER STATIONS IN TEXAS...

CITY           SKY/WX    TMP DP  RH WIND       PRES   REMARKS
ABILENE        CLEAR     75  64  68 SE8       29.92S
AMARILLO       MOCLDY    76  54  46 S16       29.96F
AUSTIN         MOCLDY    74  72  93 CALM      29.91S
BROWNSVILLE    CLEAR     78  76  93 SE5       29.87S
CORPUS CHRISTI PTCLDY    77  74  90 CALM      29.87S
DALLAS FTW     CLEAR     81  69  67 S10       29.90R
DEL RIO        CLEAR     79  68  69 E8        29.87S
EL PASO        MOCLDY    75  54  47 E3        29.98
HOUSTON INT    PTCLDY    76  74  93 CALM      29.90S
LUBBOCK        PTCLDY    70  56  61 S8        29.96S
SAN ANGELO     CLEAR     77  64  64 S12       29.91R
SAN ANTONIO    MOCLDY    79  73  82 S8        29.92S
WACO           CLEAR     79  71  76 S12       29.91R
WICHITA FALLS  NOT AVBL
$$
...OTHER LOCATIONS IN NEW MEXICO...

CITY           SKY/WX    TMP DP  RH WIND       PRES   REMARKS
ALAMAGORDO     PTCLDY    68  50  52 W6        30.00S
ALBUQUERQUE    PTCLDY    71  49  45 S5        30.07F
CANNON AFB     MOCLDY    71  51  48 S10       30.00F
CLOVIS         MOCLDY    70  52  52 S7        30.02S
HOLLOMAN AFB   MOCLDY    69  51  52 SE2       29.97F
ROSWELL        PTCLDY    76  47  35 S12       29.95S
RUIDOSO        PTCLDY    61  48  63 W7        30.19F
SANTA FE       PTCLDY    66  44  45 CALM      30.12F
TRUTH OR CONSE CLOUDY    66  56  70 NW9       30.04F
TUCUMCARI      PTCLDY    73  48  41 SW7       29.95S
$$

USA.gov is the U.S. government's official web portal to all federal, state and local government web resources and services.